Location: Podia
(1.5569°N, 32.3469°E)
Time: 22:26:06
(UTC+00:00)

N. Korean satellite - Visible Passes

Search period start: 10 August 2020 00:00
Search period end: 20 August 2020 00:00
Orbit: 453 x 506 km, 97.2° (Epoch: 10 August)

Date Brightness Start Highest point End Pass type
(mag) Time Alt. Az. Time Alt. Az. Time Alt. Az.
11 Aug 6.5 03:11:57 10° N 03:15:32 67° W 03:19:10 10° SSW visible
12 Aug 7.9 02:46:17 10° NNE 02:49:42 41° ESE 02:53:11 10° S visible
13 Aug 9.6 02:21:37 10° ENE 02:23:53 16° E 02:26:11 10° SE visible
15 Aug 6.7 03:01:40 10° NNE 03:05:18 80° E 03:09:00 10° S visible
16 Aug 8.7 02:36:18 10° NE 02:39:28 28° E 02:42:40 10° SSE visible
17 Aug 9.9 02:12:34 10° E 02:13:39 11° E 02:14:44 10° ESE visible
18 Aug 6.8 03:17:18 10° N 03:20:52 52° W 03:24:29 10° SSW visible
19 Aug 7.5 02:51:27 10° NNE 02:55:02 52° E 02:58:39 10° S visible
